Tracking 28125 objects as of 3-Oct-2023
HD Live streaming from Space Station
objects crossing your sky now

STARLINK-30417

Track STARLINK-30417 now!
10-day predictions
STARLINK-30417 is classified as:


NORAD ID: 57822
Int'l Code: 2023-138Q
Perigee: 425.9 km
Apogee: 428.3 km
Inclination: 43.0 °
Period: 93.0 minutes
Semi major axis: 6798 km
RCS: Unknown
Launch date: September 9, 2023
Source: United States (US)
Launch site: AIR FORCE EASTERN TEST RANGE (AFETR)
Your satellite tracking list
Your tracking list is empty




NASA's NSSDC Master Catalog

Two Line Element Set (TLE):
1 57822U 23138Q   23275.58334491  .00010514  00000-0  19603-3 0  9990
2 57822  43.0005  30.6111 0001739 245.3433  46.8559 15.48893811  4812
Source of the keplerian elements: AFSPC